/EX
1
0
SB KEPS @ AMSAT $ORB16287.N
2Line Orbital Elements 16287.AMSAT
HR AMSAT ORBITAL ELEMENTS FOR AMATEUR SATELLITES IN NASA FORMAT
FROM WA5QGD FORT WORTH,TX October 13, 2016
BID: ORB16287.N
DECODE 2-LINE ELSETS WITH THE FOLLOWING KEY:
1 AAAAAU 00 0 0 BBBBB.BBBBBBBB .CCCCCCCC 00000-0 00000-0 0 DDDZ
2 AAAAA EEE.EEEE FFF.FFFF GGGGGGG HHH.HHHH III.IIII JJ.JJJJJJJJKKKKKZ
KEY: A-CATALOGNUM B-EPOCHTIME C-DECAY D-ELSETNUM E-INCLINATION F-RAAN
G-ECCENTRICITY H-ARGPERIGEE I-MNANOM J-MNMOTION K-ORBITNUM Z-CHECKSUM
TO ALL RADIO AMATEURS BT
AO-07
1 07530U 74089B 16286.91877269 -.00000034 00000-0 63744-4 0 9991
2 07530 101.5912 254.8729 0012420 081.6862 299.2090 12.53623599917646
FO-29
1 24278U 96046B 16287.18670211 -.00000033 00000-0 58028-5 0 9993
2 24278 98.5819 196.9505 0349295 257.0768 99.1151 13.53071168995472
RS-22
1 27939U 03042A 16287.88439017 .00000320 00000-0 66066-4 0 9996
2 27939 97.9058 75.1049 0011725 290.1231 221.8445 14.66467527697219
AO-73
1 39444U 13066AE 16287.79148495 .00000766 00000-0 10222-3 0 9990
2 39444 97.6675 336.2596 0058494 354.6198 5.4380 14.81207393155139
EO-79
1 40025U 14033R 16287.80809728 .00000979 00000-0 11223-3 0 9995
2 40025 97.9191 193.1799 0013693 39.5923 320.6290 14.88159271125849
XW-2A
1 40903U 15049E 16287.80481801 .00006138 00000-0 16962-3 0 9994
2 40903 97.4418 304.4300 0017344 72.9734 287.3409 15.37269552 59772
XW-2C
1 40906U 15049H 16287.82556617 .00002883 00000-0 16225-3 0 9992
2 40906 97.4549 292.3802 0015263 354.1164 5.9886 15.13949178 58957
LILACSAT-2
1 40908U 15049K 16287.85746805 .00001419 00000-0 84384-4 0 9993
2 40908 97.4618 292.2131 0015952 347.7917 12.2925 15.12763470 58929
UO-11
1 14781U 84021B 16287.73531904 .00000287 00000-0 41795-4 0 9999
2 14781 97.7353 336.0212 0007119 290.2098 69.8350 14.82807361753828
LO-19
1 20442U 90005G 16287.08191412 .00000023 00000-0 24579-4 0 9992
2 20442 98.5504 220.4168 0012190 152.7674 207.4151 14.32833240396236
AO-27
1 22825U 93061C 16286.91706187 .00000028 00000-0 28460-4 0 9994
2 22825 098.7744 243.9739 0008076 341.2711 018.8173 14.29971683201794
IO-26
1 22826U 93061D 16286.86477543 .00000051 00000-0 37174-4 0 9998
2 22826 98.7687 244.0318 0008442 331.5087 28.5632 14.30298004202229
GO-32
1 25397U 98043D 16287.28866330 .00000011 00000-0 23614-4 0 9992
2 25397 98.5784 229.2247 0001750 39.5285 320.6022 14.23605057948663
NO-44
1 26931U 01043C 16287.71296314 .00000032 00000-0 44136-4 0 9993
2 26931 67.0531 7.1175 0005390 269.4671 90.5812 14.30428848785094
SO-50
1 27607U 02058C 16287.66446196 .00000270 00000-0 38792-4 0 9995
2 27607 64.5555 158.8513 0054486 189.6207 170.4358 14.75224432742741
CO-55
1 27844U 03031E 16286.89169902 .00000131 00000-0 79192-4 0 9996
2 27844 98.6934 293.4925 0009474 349.3236 10.7739 14.21983807689175
CO-57
1 27848U 03031J 16287.24737107 .00000112 00000-0 70896-4 0 9999
2 27848 98.7030 293.9916 0009534 357.1707 2.9415 14.21606273689116
CO-65
1 32785U 08021C 16287.21483771 .00000637 00000-0 75654-4 0 9990
2 32785 97.5927 316.4611 0011659 265.8320 94.1565 14.87689992458174
PRISM
1 33493U 09002B 16287.80053867 .00002025 00000-0 18960-3 0 9990
2 33493 98.1997 153.3922 0015619 170.6521 189.4991 14.95213205418956
TISAT-1
1 36799U 10035E 16287.85649284 .00001491 00000-0 16032-3 0 9993
2 36799 98.0405 40.0472 0013603 59.8582 300.3981 14.90035460339099
ALMASAT-1
1 38078U 12006B 16287.79796757 .00022701 37119-5 28535-3 0 9990
2 38078 69.4456 69.4699 0361187 290.5843 65.6927 15.09658564247447
DUCHIFAT-1
1 40021U 14033M 16287.72525772 .00001312 00000-0 14349-3 0 9990
2 40021 97.9228 194.4714 0014249 37.4805 322.7403 14.89519166125901
NANOSATCBR1
1 40024U 14033Q 16287.68695988 .00001206 00000-0 13438-3 0 9995
2 40024 97.9197 193.6797 0013489 38.0868 322.1300 14.88899134125862
DTUSAT-2
1 40030U 14033W 16287.28069686 .00000872 00000-0 10150-3 0 9994
2 40030 97.9165 192.0027 0013022 35.8729 324.3359 14.87790189125730
ANTELSAT
1 40034U 14033AA 16287.66431994 .00000552 00000-0 90481-4 0 9996
2 40034 97.8852 172.7784 0059825 6.3174 353.8783 14.73498667124625
MET-2/21
1 22782U 93055A 16287.26292611 .00000079 00000-0 57885-4 0 9999
2 22782 82.5511 219.5246 0023612 45.7577 118.2223 13.83793540167548
NOAA-15
1 25338U 98030A 16287.89430416 .00000012 00000-0 23914-4 0 9996
2 25338 98.7849 292.2959 0010399 195.8927 164.1910 14.25757279957900
NOAA-18
1 28654U 05018A 16287.65814097 .00000041 00000-0 22179-4 0 9993
2 28654 99.1979 297.6716 0014946 45.4813 314.8060 14.12308477587636
NOAA-19
1 33591U 09005A 16287.48774000 .00000311 00000-0 16973-3 0 9993
2 33591 99.0541 245.3116 0013132 245.4781 114.5493 14.12116723396322
HUBBLE
1 20580U 90037B 16287.23332176 .00001219 00000-0 64948-4 0 9993
2 20580 28.4693 199.0810 0002838 41.3778 211.3725 15.08541584252953
ISS
1 25544U 98067A 16287.61842781 .00007629 00000-0 11470-3 0 9991
2 25544 51.6413 187.3250 0006741 68.7252 291.4979 15.54178335 23419
CO-58
1 28895U 05043F 16287.12441555 .00000374 00000-0 81108-4 0 9991
2 28895 97.8414 95.2019 0016379 201.3998 158.6522 14.63272426584352
AAUSAT2
1 32788U 08021F 16287.17383627 .00001243 00000-0 12335-3 0 9997
2 32788 97.5915 326.0874 0010927 231.6406 128.3833 14.93459852458800
DO-64
1 32789U 08021G 16286.86063595 .00003433 00000-0 25362-3 0 9999
2 32789 097.5926 343.9878 0012535 218.1835 141.8504 15.03829564459582
CO-66
1 32791U 08021J 16287.05893480 .00000890 00000-0 97842-4 0 9995
2 32791 97.5926 319.8733 0012131 252.5587 107.4305 14.89938670458347
RS-30
1 32953U 08025A 16287.67755428 .00000006 00000-0 -32094-4 0 9994
2 32953 82.5069 32.9565 0019954 104.4504 255.8791 12.43072044380791
JUGNU
1 37839U 11058B 16287.82976950 .00000347 00000-0 43298-4 0 9999
2 37839 19.9603 144.2253 0018871 348.0349 109.0970 14.12557159258828
SRMSAT
1 37841U 11058D 16287.12906397 .00000334 00000-0 38551-4 0 9995
2 37841 19.9711 185.0787 0011801 246.8790 273.5889 14.10554101258364
AO-71
1 37854U 11061E 16287.23686578 .00004519 00000-0 25229-3 0 9997
2 37854 101.6977 29.4273 0170803 85.2822 276.7871 15.02942221269826
HRBE
1 37855U 11061F 16287.80696251 .00005108 00000-0 27789-3 0 9998
2 37855 101.7110 28.2722 0184742 88.6470 273.5895 15.01884060269798
HORYU-2
1 38340U 12025D 16287.74445752 .00000682 00000-0 10913-3 0 9993
2 38340 98.3653 277.1759 0011766 2.2006 357.9252 14.75147675236958
RS-40
1 38735U 12041C 16287.82707347 .00000036 00000-0 18706-3 0 9990
2 38735 82.4719 117.8086 0016439 203.1297 156.9044 12.42573785191090
BEESAT-3
1 39134U 13015E 16287.17704441 .00003841 00000-0 20473-3 0 9997
2 39134 64.8703 303.0300 0017893 304.0881 55.8546 15.16619820192005
BEESAT-2
1 39136U 13015G 16287.63562457 .00003443 00000-0 18703-3 0 9990
2 39136 64.8720 309.0073 0016896 309.8400 50.1747 15.14155179191933
ZACUBE-1
1 39417U 13066B 16287.69314662 .00000619 00000-0 85148-4 0 9997
2 39417 97.6663 335.4191 0059370 357.2921 2.7962 14.80513584156302
TRITON-1
1 39427U 13066M 16287.13784865 .00000562 00000-0 97994-4 0 9992
2 39427 97.6578 312.8554 0115870 60.3005 300.9675 14.67285732154817
GOMX-1
1 39430U 13066Q 16287.58661713 .00000480 00000-0 95931-4 0 9999
2 39430 97.6674 299.5138 0153503 101.6937 260.1521 14.58692495153987
LO-74
1 39440U 13066AA 16287.78260708 .00000610 00000-0 92694-4 0 9999
2 39440 97.6609 326.6993 0081428 20.4726 339.9716 14.75268310155760
